Regional Weather Roundup
Issued by NWS

Home | Current Version | Previous Version | Graphics & Text | Print | Product List | Glossary On
Versions: 1 2 3 4 5 6 7 8 9 10 11 12 13 14 15 16 17 18 19 20 21 22 23 24 25 26 27 28 29 30 31 32 33 34 35 36 37 38 39 40 41 42 43 44 45 46 47 48 49 50
000
ASUS45 KABQ 302101
RWRNM
NEW MEXICO REGIONAL WEATHER ROUNDUP
NATIONAL WEATHER SERVICE ALBUQUERQUE NM
300 PM MDT MON MAY 30 2016

NOTE: "FAIR" MEANS FEW OR NO CLOUDS BELOW 12,000 FEET AGL WITH NO
       SIGNIFICANT WEATHER OR OBSTRUCTIONS TO VISION.

      THIS PRODUCT IS RELEASED AS TWO VERSIONS.  ONE VERSION NEAR
      THE TOP OF THE HOUR CONTAINING PRELIMINARY DATA FROM ALBUQUERQUE
      AND OTHER STATIONS.  A FINAL VERSION WITH ADDITIONAL DATA IS
      ISSUED ABOUT 10 MINUTES AFTER THE HOUR.

NMZ501-503-504-510>518-302200-
NORTHWEST PLATEAU/NORTHCENTRAL MOUNTAINS

CITY           SKY/WX    TMP DP  RH WIND       PRES   REMARKS
FARMINGTON     FAIR      82  10   6 SW10      30.01F
SANTA FE       FAIR      81  15   8 S9G25     30.07F
TAOS           FAIR      73  19  13 SW17      30.11F
ANGEL FIRE     FAIR      66  24  20 W21G26    30.19F

$$
NMZ402-403-502-505>509-302200-
WESTCENTRAL MOUNTAINS/SOUTHWEST MOUNTAINS

CITY           SKY/WX    TMP DP  RH WIND       PRES   REMARKS
GALLUP         FAIR      76  19  11 S13G20    30.09F
GRANTS         FAIR      78  21  11 SW13G18   30.09F
SILVER CITY      N/A     77  34  20 W9G23     30.06F

$$
NMZ407-409-411-412-302200-
SOUTHERN DESERTS

CITY           SKY/WX    TMP DP  RH WIND       PRES   REMARKS
LORDSBURG      PTSUNNY   73  52  46 S5        29.98F
DEMING         PTSUNNY   75  52  44 SW10G16   29.97F
HOLLOMAN AFB   FAIR      90  34  14 SW13G25   29.91F
ALAMOGORDO     FAIR      88  34  14 S14G21    29.94F
T OR C         FAIR      83  34  17 W16       29.97F

$$
NMZ519>523-302200-
CENTRAL VALLEYS/CENTRAL HIGHLANDS

CITY           SKY/WX    TMP DP  RH WIND       PRES   REMARKS
ALBUQUERQUE    PTSUNNY   81  23  11 VRB7      30.02F
DOUBLE EAGLE   PTSUNNY   81  39  22 S12       30.05F
CLINES CORNERS FAIR      77  19  11 SW18G30   30.10F
BELEN          FAIR      84  23  11 S7        30.00F
SOCORRO        NOT AVBL

$$
NMZ524>526-539-540-302200-
SOUTHCENTRAL MOUNTAINS

CITY           SKY/WX    TMP DP  RH WIND       PRES   REMARKS
RUIDOSO        NOT AVBL

$$
NMZ527>531-302200-
NORTHEAST HIGHLANDS/NORTHEAST PLAINS

CITY           SKY/WX    TMP DP  RH WIND       PRES   REMARKS
LAS VEGAS      FAIR      76  17  11 SW9       30.08F
RATON          FAIR      76  33  21 SE9       30.04F
CLAYTON        FAIR      80  50  34 S17G24    29.99F

$$
NMZ532>537-302200-
EASTCENTRAL PLAINS

CITY           SKY/WX    TMP DP  RH WIND       PRES   REMARKS
TUCUMCARI      FAIR      89  39  17 SW13G21   29.93F
CANNON AFB     NOT AVBL
CLOVIS AIRPORT FAIR      84  54  34 SW10G20   30.00F

$$
NMZ028-029-538-302200-
SOUTHEAST PLAINS

CITY           SKY/WX    TMP DP  RH WIND       PRES   REMARKS
ROSWELL        FAIR      86  51  29 N14       29.93F
ARTESIA        FAIR      79  61  53 S14G20    29.99R
CARLSBAD       FAIR      80  57  45 SE15      29.93F
HOBBS          MOSUNNY   82  55  39 SE10G16   29.99F


$$




USA.gov is the U.S. government's official web portal to all federal, state and local government web resources and services.